Menomonie, WI

8:14 PM CDT on July 20, 2017 (GMT -0500)
Menomonie

Weather History for KLUM - April, 2014

Change the Weather History Date:

Sunday, April 27, 2014

  Actual Average (KEAU) Record (KEAU)
Temperature  
Mean Temperature 40 °F -  
Max Temperature 44 °F 64 °F 87 °F (1970)
Min Temperature 37 °F 39 °F 23 °F (1996)
Degree Days  
Heating Degree Days 24    
Moisture  
Dew Point 34 °F    
Average Humidity 79    
Maximum Humidity 91    
Minimum Humidity 63    
Precipitation  
Precipitation 0.35 in - - ()
Sea Level Pressure  
Sea Level Pressure 29.88 in    
Wind  
Wind Speed 18 mph (East)    
Max Wind Speed 26 mph    
Max Gust Speed 34 mph    
Visibility 9 miles    
Events Rain , Thunderstorm    
Averages and records for this station are not official NWS values.
T = Trace of Precipitation, MM = Missing Value Source: NWS Daily Summary

Daily Weather History Graph

Daily Weather History Graph

Search for Another Location

Airport or City:

Trip Planner

Search our weather history database for the weather conditions in past years. The results will help you decide how hot, cold, wet, or windy it might be!

Date:

Astronomy

Apr. 27, 2014 Rise Set
Actual Time 6:03 AM CDT 8:07 PM CDT
Civil Twilight 5:31 AM CDT 8:39 PM CDT
Nautical Twilight 4:52 AM CDT 9:19 PM CDT
Astronomical Twilight 4:09 AM CDT 10:02 PM CDT
Moon 5:08 AM CDT (4/27) 6:38 PM CDT (4/27)
Length of Visible Light 15h 08m
Length of Day
14h 04m
Waning Crescent, 3% of the Moon is Illuminated
Apr 27
Waning Crescent
Apr 29
New
May 6
First Quarter
May 14
Full
May 21
Last Quarter

Hourly Weather History & Observations

Time (CDT) Temp. Windchill Dew Point Humidity Pressure Visibility Wind Dir Wind Speed Gust Speed Precip Events Conditions
12:15 AM 44.6 °F 36.9 °F 33.8 °F 66% 30.00 in 10.0 mi East 18.4 mph 23.0 mph N/A   Overcast
12:35 AM 44.2 °F 36.7 °F 32.9 °F 64% 30.00 in 10.0 mi East 17.3 mph 20.7 mph N/A   Overcast
12:55 AM 44.1 °F 37.1 °F 32.2 °F 63% 29.99 in 10.0 mi East 15.0 mph 24.2 mph N/A   Overcast
1:15 AM 43.7 °F 36.6 °F 32.4 °F 64% 30.00 in 10.0 mi East 15.0 mph 23.0 mph N/A   Overcast
1:35 AM 43.0 °F 35.1 °F 32.9 °F 68% 29.98 in 10.0 mi East 17.3 mph - N/A   Overcast
1:55 AM 42.4 °F 33.8 °F 32.9 °F 69% 29.98 in 10.0 mi East 19.6 mph 25.3 mph N/A   Overcast
2:15 AM 42.1 °F 33.3 °F 32.4 °F 68% 29.98 in 10.0 mi East 19.6 mph 28.8 mph N/A   Overcast
2:35 AM 41.5 °F 34.6 °F 32.9 °F 71% 29.97 in 10.0 mi East 12.7 mph 20.7 mph N/A   Overcast
2:55 AM 41.2 °F 32.1 °F 32.7 °F 72% 29.97 in 10.0 mi East 19.6 mph 24.2 mph N/A   Overcast
3:15 AM 40.5 °F 32.1 °F 33.8 °F 77% 29.96 in 10.0 mi East 16.1 mph 26.5 mph N/A Rain Light Rain
3:35 AM 39.7 °F 30.9 °F 33.8 °F 79% 29.95 in 7.0 mi East 17.3 mph 27.6 mph 0.01 in Rain Light Rain
3:55 AM 39.7 °F 31.2 °F 32.9 °F 77% 29.96 in 10.0 mi East 16.1 mph 25.3 mph 0.01 in   Overcast
4:15 AM 39.6 °F 30.6 °F 32.2 °F 75% 29.95 in 10.0 mi East 17.3 mph 24.2 mph N/A   Overcast
4:35 AM 39.4 °F 29.2 °F 32.0 °F 75% 29.96 in 10.0 mi East 21.9 mph 26.5 mph N/A   Overcast
4:55 AM 39.2 °F 30.2 °F 32.0 °F 75% 29.97 in 10.0 mi East 17.3 mph 24.2 mph N/A   Overcast
5:15 AM 39.0 °F 30.6 °F 32.0 °F 76% 29.98 in 10.0 mi East 15.0 mph 23.0 mph N/A Rain Light Rain
5:35 AM 38.5 °F 29.6 °F 32.0 °F 78% 29.98 in 7.0 mi East 16.1 mph 20.7 mph 0.01 in Rain Light Rain
5:55 AM 37.8 °F 29.0 °F 32.4 °F 81% 29.97 in 7.0 mi East 15.0 mph 19.6 mph 0.03 in Rain Light Rain
6:15 AM 37.4 °F 27.5 °F 33.1 °F 84% 29.93 in 7.0 mi ENE 18.4 mph - N/A Rain Light Rain
6:35 AM 37.4 °F 26.6 °F 32.5 °F 83% 29.92 in 10.0 mi ENE 21.9 mph - N/A   Overcast
6:55 AM 37.4 °F 27.5 °F 32.5 °F 83% 29.92 in 10.0 mi East 18.4 mph 21.9 mph N/A   Overcast
7:15 AM 37.9 °F 28.2 °F 32.2 °F 80% 29.91 in 10.0 mi East 18.4 mph 28.8 mph N/A   Overcast
7:35 AM 38.3 °F 29.7 °F 32.0 °F 78% 29.92 in 10.0 mi East 15.0 mph 24.2 mph N/A   Overcast
7:55 AM 38.7 °F 28.8 °F 32.2 °F 78% 29.91 in 10.0 mi East 19.6 mph 25.3 mph N/A   Overcast
8:15 AM 39.2 °F 29.8 °F 32.2 °F 76% 29.91 in 10.0 mi East 18.4 mph 25.3 mph N/A   Overcast
8:55 AM 39.6 °F 29.5 °F 32.9 °F 77% 29.90 in 10.0 mi East 21.9 mph 27.6 mph N/A Rain Light Rain
9:15 AM 40.3 °F 30.7 °F 33.3 °F 76% 29.89 in 10.0 mi East 20.7 mph 28.8 mph N/A   Overcast
9:35 AM 40.3 °F 31.3 °F 32.9 °F 75% 29.88 in 10.0 mi East 18.4 mph 28.8 mph N/A Rain Rain
9:55 AM 40.5 °F 30.7 °F 33.8 °F 77% 29.88 in 10.0 mi East 21.9 mph - 0.01 in Rain Light Rain
10:15 AM 41.0 °F 32.5 °F 33.6 °F 75% 29.89 in 10.0 mi East 17.3 mph 26.5 mph N/A Rain Light Rain
10:35 AM 41.5 °F 33.5 °F 34.0 °F 75% 29.90 in 10.0 mi East 16.1 mph 19.6 mph N/A   Light Drizzle
11:15 AM 41.2 °F 33.7 °F 35.4 °F 80% 29.90 in 7.0 mi East 13.8 mph 26.5 mph 0.03 in Rain , Thunderstorm Light Thunderstorms and Rain
11:35 AM 41.0 °F 31.9 °F 36.0 °F 82% 29.90 in 5.0 mi East 19.6 mph 23.0 mph 0.06 in Rain , Thunderstorm Light Thunderstorms and Rain
11:55 AM 40.6 °F 32.0 °F 36.3 °F 85% 29.89 in 3.0 mi East 17.3 mph 23.0 mph 0.09 in Rain Light Rain
12:15 PM 40.5 °F 32.1 °F 37.0 °F 88% 29.90 in 5.0 mi East 16.1 mph 21.9 mph 0.03 in Rain Light Rain
12:35 PM 40.1 °F 31.6 °F 36.9 °F 88% 29.91 in 5.0 mi East 16.1 mph 23.0 mph 0.06 in Rain Light Rain
12:55 PM 40.3 °F 31.3 °F 37.2 °F 89% 29.90 in 5.0 mi East 18.4 mph 27.6 mph 0.06 in Rain Light Rain
1:15 PM 40.1 °F 30.7 °F 37.4 °F 90% 29.88 in 5.0 mi East 19.6 mph 26.5 mph 0.01 in Rain , Thunderstorm Light Thunderstorms and Rain
1:35 PM 40.1 °F 29.2 °F 37.4 °F 90% 29.88 in 3.0 mi East 26.5 mph 31.1 mph 0.03 in Rain Rain
1:55 PM 40.1 °F 29.9 °F 37.0 °F 89% 29.88 in 4.0 mi East 23.0 mph 33.4 mph 0.06 in Rain Light Rain
2:15 PM 39.7 °F 30.3 °F 37.2 °F 91% 29.89 in 5.0 mi East 19.6 mph 23.0 mph 0.04 in Rain Light Rain
2:35 PM 40.3 °F 31.9 °F 37.4 °F 89% 29.89 in 10.0 mi ENE 16.1 mph 29.9 mph 0.04 in Rain Light Rain
2:55 PM 40.6 °F 31.7 °F 37.6 °F 89% 29.88 in 10.0 mi ENE 18.4 mph 24.2 mph 0.04 in Rain Light Rain
3:15 PM 41.0 °F 31.4 °F 37.6 °F 88% 29.86 in 10.0 mi East 21.9 mph 25.3 mph N/A   Light Drizzle
3:35 PM 41.2 °F 31.6 °F 37.2 °F 86% 29.83 in 10.0 mi ENE 21.9 mph 28.8 mph N/A   Overcast
3:55 PM 41.9 °F 32.6 °F 37.4 °F 84% 29.83 in 10.0 mi ENE 21.9 mph 28.8 mph N/A   Overcast
4:15 PM 42.8 °F 33.1 °F 36.5 °F 78% 29.81 in 10.0 mi East 25.3 mph 32.2 mph N/A   Overcast
4:35 PM 42.4 °F 33.3 °F 35.6 °F 77% 29.80 in 10.0 mi ENE 21.9 mph 28.8 mph N/A   Drizzle
4:55 PM 41.0 °F 31.6 °F 35.8 °F 82% 29.80 in 7.0 mi ENE 20.7 mph 28.8 mph 0.01 in Rain , Thunderstorm Light Thunderstorms and Rain
5:15 PM 41.0 °F 31.6 °F 35.8 °F 82% 29.78 in 10.0 mi ENE 20.7 mph 26.5 mph N/A   Light Drizzle
5:35 PM 41.0 °F 31.9 °F 35.1 °F 79% 29.79 in 10.0 mi East 19.6 mph 28.8 mph N/A   Overcast
5:55 PM 41.0 °F 31.9 °F 34.3 °F 77% 29.80 in 10.0 mi East 19.6 mph 28.8 mph N/A   Overcast
6:15 PM 41.0 °F 31.6 °F 34.0 °F 76% 29.79 in 10.0 mi East 20.7 mph 29.9 mph N/A   Overcast
6:35 PM 41.2 °F 32.4 °F 33.4 °F 74% 29.81 in 10.0 mi East 18.4 mph 28.8 mph N/A Thunderstorm Overcast
6:55 PM 41.0 °F 32.2 °F 33.6 °F 75% 29.81 in 10.0 mi East 18.4 mph 25.3 mph N/A Thunderstorm Overcast
7:15 PM 40.8 °F 32.9 °F 34.2 °F 77% 29.87 in 10.0 mi East 15.0 mph 18.4 mph N/A Rain Rain
7:35 PM 40.1 °F 32.4 °F 34.9 °F 82% 29.87 in 10.0 mi East 13.8 mph 18.4 mph 0.03 in Rain , Thunderstorm Light Thunderstorms and Rain
7:55 PM 40.5 °F 31.5 °F 34.9 °F 80% 29.85 in 10.0 mi East 18.4 mph 23.0 mph 0.04 in   Overcast
8:15 PM 40.3 °F 31.0 °F 34.7 °F 80% 29.84 in 10.0 mi East 19.6 mph 26.5 mph N/A   Overcast
8:35 PM 40.1 °F 30.2 °F 34.7 °F 81% 29.83 in 10.0 mi East 21.9 mph 28.8 mph N/A   Scattered Clouds
8:55 PM 40.1 °F 29.9 °F 34.7 °F 81% 29.81 in 10.0 mi East 23.0 mph 32.2 mph N/A   Scattered Clouds
9:15 PM 40.3 °F 30.2 °F 34.5 °F 80% 29.80 in 10.0 mi East 23.0 mph 33.4 mph N/A   Mostly Cloudy
9:35 PM 40.6 °F 30.0 °F 34.2 °F 78% 29.77 in 10.0 mi East 26.5 mph 34.5 mph N/A   Overcast
9:55 PM 41.2 °F 30.9 °F 34.0 °F 76% 29.78 in 10.0 mi East 25.3 mph 34.5 mph N/A   Overcast
10:15 PM 41.2 °F 31.9 °F 34.9 °F 78% 29.81 in 7.0 mi East 20.7 mph 28.8 mph N/A Rain Light Rain
10:35 PM 41.0 °F 32.2 °F 35.6 °F 81% 29.80 in 10.0 mi East 18.4 mph 28.8 mph N/A Rain Light Rain
10:55 PM 41.2 °F 32.4 °F 36.0 °F 82% 29.78 in 10.0 mi East 18.4 mph 24.2 mph N/A   Mostly Cloudy
11:15 PM 41.4 °F 32.7 °F 36.3 °F 82% 29.78 in 10.0 mi East 18.4 mph 24.2 mph N/A   Mostly Cloudy
11:35 PM 41.9 °F 33.4 °F 36.5 °F 81% 29.78 in 10.0 mi East 18.4 mph 25.3 mph N/A   Mostly Cloudy
11:55 PM 42.1 °F 34.5 °F 36.5 °F 81% 29.80 in 10.0 mi East 15.0 mph 20.7 mph N/A   Mostly Cloudy